Weather History for KPWM - December, 2013

Change the Weather History Date:

Tuesday, December 24, 2013

  Actual Average Record
Temperature  
Mean Temperature 25 °F 26 °F  
Max Temperature 33 °F 35 °F 53 °F (1957)
Min Temperature 16 °F 17 °F -13 °F (1989)
Degree Days  
Heating Degree Days 40 39  
Month to date heating degree days 933 839  
Since 1 July heating degree days 2384 2330  
Cooling Degree Days 0 0  
Month to date cooling degree days 0 0  
Year to date cooling degree days 454 359  
Moisture  
Dew Point 22 °F    
Average Humidity 85    
Maximum Humidity 96    
Minimum Humidity 73    
Precipitation  
Precipitation 0.00 in 0.12 in 2.99 in (1994)
Month to date precipitation 3.17 3.19  
Year to date precipitation 42.60 46.42  
Snow  
Snow 0.00 in 0.50 in 16.70 in (1970)
Month to date snowfall 22.9 9.4  
Since 1 July snowfall 23.4 11.3  
Snow Depth 7.00 in    
Sea Level Pressure  
Sea Level Pressure 30.11 in    
Wind  
Wind Speed 5 mph (North)    
Max Wind Speed 13 mph    
Max Gust Speed 17 mph    
Visibility 10 miles    
Events      
T = Trace of Precipitation, MM = Missing Value Source: NWS Daily Summary

Daily Weather History Graph

Daily Weather History Graph

Search for Another Location

Airport or City:

Trip Planner

Search our weather history database for the weather conditions in past years. The results will help you decide how hot, cold, wet, or windy it might be!

Date:

Astronomy

Dec. 24, 2013 Rise Set
Actual Time 7:12 AM EST 4:09 PM EST
Civil Twilight 6:40 AM EST 4:41 PM EST
Nautical Twilight 6:03 AM EST 5:18 PM EST
Astronomical Twilight 5:28 AM EST 5:53 PM EST
Moon 11:27 PM EST (12/24) 10:53 AM EST (12/24)
Length of Visible Light 10h 01m
Length of Day
8h 56m
Waning Gibbous, 59% of the Moon is Illuminated
Dec 24
Waning Gibbous
Dec 25
Last Quarter
Jan 1
New
Jan 7
First Quarter
Jan 15
Full

Hourly Weather History & Observations

Time (EST) Temp. Windchill Dew Point Humidity Pressure Visibility Wind Dir Wind Speed Gust Speed Precip Events Conditions
12:37 AM 33.1 °F 30.0 °F 30.9 °F 92% 30.07 in 9.0 mi WNW 3.5 mph - N/A   Overcast
12:51 AM 33.1 °F - 32.0 °F 96% 30.08 in 10.0 mi Calm Calm - N/A   Overcast
1:20 AM 33.1 °F 28.7 °F 32.0 °F 96% 30.07 in 9.0 mi WNW 4.6 mph - N/A   Overcast
1:51 AM 33.1 °F - 32.0 °F 96% 30.08 in 8.0 mi Calm Calm - N/A   Overcast
2:51 AM 32.0 °F - 30.9 °F 96% 30.09 in 7.0 mi Calm Calm - N/A   Overcast
3:51 AM 32.0 °F 26.4 °F 28.0 °F 85% 30.10 in 10.0 mi NW 5.8 mph - N/A   Clear
4:51 AM 30.9 °F 26.2 °F 26.1 °F 82% 30.09 in 10.0 mi North 4.6 mph - N/A   Overcast
5:51 AM 28.0 °F - 26.1 °F 92% 30.11 in 10.0 mi Calm Calm - N/A   Scattered Clouds
6:51 AM 28.9 °F 22.8 °F 27.0 °F 92% 30.12 in 10.0 mi NNE 5.8 mph - N/A   Scattered Clouds
7:51 AM 28.0 °F 20.8 °F 23.0 °F 81% 30.12 in 10.0 mi North 6.9 mph - N/A   Mostly Cloudy
8:51 AM 28.0 °F 19.3 °F 21.0 °F 75% 30.12 in 10.0 mi North 9.2 mph - N/A   Mostly Cloudy
9:51 AM 27.0 °F 18.0 °F 19.0 °F 72% 30.15 in 10.0 mi North 9.2 mph - N/A   Mostly Cloudy
10:51 AM 27.0 °F 19.5 °F 21.0 °F 78% 30.10 in 10.0 mi North 6.9 mph - N/A   Mostly Cloudy
11:15 AM 27.0 °F 18.0 °F 19.9 °F 75% 30.10 in 10.0 mi North 9.2 mph - N/A   Mostly Cloudy
11:51 AM 26.1 °F 16.8 °F 19.0 °F 75% 30.10 in 10.0 mi North 9.2 mph - N/A   Mostly Cloudy
12:51 PM 27.0 °F 20.5 °F 21.0 °F 78% 30.10 in 10.0 mi NNE 5.8 mph - N/A   Scattered Clouds
1:05 PM 27.0 °F 20.5 °F 21.0 °F 78% 30.09 in 10.0 mi NNE 5.8 mph - N/A   Mostly Cloudy
1:51 PM 27.0 °F 21.6 °F 21.0 °F 78% 30.07 in 10.0 mi NNE 4.6 mph - N/A   Mostly Cloudy
2:51 PM 27.0 °F 20.5 °F 21.0 °F 78% 30.06 in 10.0 mi North 5.8 mph - N/A   Mostly Cloudy
2:54 PM 28.0 °F 21.7 °F 21.0 °F 75% 30.06 in 10.0 mi North 5.8 mph - N/A   Overcast
3:51 PM 27.0 °F - 21.0 °F 78% 30.07 in 10.0 mi Calm Calm - N/A   Overcast
4:51 PM 26.1 °F - 19.9 °F 78% 30.10 in 10.0 mi Calm Calm - N/A   Scattered Clouds
5:00 PM 25.0 °F - 19.9 °F 81% 30.10 in 10.0 mi Calm Calm - N/A   Mostly Cloudy
5:51 PM 26.1 °F - 21.9 °F 84% 30.11 in 10.0 mi Calm Calm - N/A   Overcast
6:03 PM 25.0 °F 20.7 °F 21.9 °F 88% 30.10 in 10.0 mi North 3.5 mph - N/A   Overcast
6:20 PM 25.0 °F 19.3 °F 21.0 °F 85% 30.11 in 10.0 mi North 4.6 mph - N/A   Overcast
6:51 PM 23.0 °F 17.0 °F 19.9 °F 88% 30.13 in 10.0 mi NNE 4.6 mph - N/A   Mostly Cloudy
7:51 PM 21.9 °F 15.7 °F 17.1 °F 82% 30.15 in 10.0 mi NE 4.6 mph - N/A   Mostly Cloudy
8:51 PM 21.0 °F 16.2 °F 16.0 °F 81% 30.16 in 10.0 mi NNE 3.5 mph - N/A   Mostly Cloudy
9:51 PM 19.0 °F 11.1 °F 12.9 °F 77% 30.16 in 10.0 mi North 5.8 mph - N/A   Clear
10:51 PM 16.0 °F 8.8 °F 10.9 °F 81% 30.18 in 10.0 mi North 4.6 mph - N/A   Mostly Cloudy
11:51 PM 16.0 °F 3.6 °F 9.0 °F 74% 30.19 in 10.0 mi NNW 10.4 mph - N/A   Overcast